APSTAR 6D

Last updated on Jan. 21, 2021, 6:16 a.m. UTC

1 45863U 20045A   21020.93750543 -.00000310  00000-0  00000-0 0  9993
2 45863   0.0591  96.6137 0000599 224.7655 270.6038  1.00268843  2076
UTC
Height (km)
Latitude
Longitude
Inclination
Orbital Period
UTC large
Height (km)
Speed (km/s)
/
Latitude / Longitude
Inclination (degrees)
Orbital Period (minutes)
Azimuth
Elevation
Range (km)
Doppler Factor
iOS Compass Heading
iOS Angle

Next 30 passes for location: Hong Kong

Rise time Rise Azimuth (degrees) Set time Set Azimuth (degrees) Duration Max altitude (degrees)

No matching passes for this satellites